Location: Bremen
(53.0793°N, 8.8017°E)
Time: 12:52:38
(UTC+01:00)

Vanguard 1 Rocket - Pass Details

Date: 08 December 2021
Orbit: 651 x 4224 km, 34.3° (Epoch: 19 January)

Event Time Altitude Azimuth Distance (km) Brightness Sun altitude
Rises 04:48:00 0° 251° (WSW) 4,947 - -31.2°
Reaches altitude 10° 04:51:02 10° 243° (WSW) 4,345 - -30.7°
Exits shadow 04:56:08 27° 221° (SW) 3,750 10.1 -30.0°
Maximum altitude 05:02:15 36° 182° (S) 3,886 10.4 -29.1°
Drops below altitude 10° 05:20:46 10° 127° (SE) 7,067 12.6 -26.3°
Sets 05:27:37 0° 120° (ESE) 8,360 13.3 -25.3°
